Weather History for PADQ - November, 2014

Change the Weather History Date:

Sunday, November 30, 2014

  Actual Average Record
Temperature  
Mean Temperature 35 °F 32 °F  
Max Temperature 42 °F 37 °F 48 °F (1950)
Min Temperature 28 °F 27 °F 6 °F (1971)
Degree Days  
Heating Degree Days 30 33  
Month to date heating degree days 747 934  
Since 1 July heating degree days 2396 2792  
Cooling Degree Days 0    
Month to date cooling degree days 0  
Year to date cooling degree days 4  
Moisture  
Dew Point 28 °F    
Average Humidity 0    
Maximum Humidity 0    
Minimum Humidity 0    
Precipitation  
Precipitation T in 0.26 in 1.04 in (1991)
Month to date precipitation 13.00 6.87  
Year to date precipitation 75.65 69.27  
Snow  
Snow 0.00 in 0.40 in 2.40 in (1999)
Month to date snowfall 0.0 6.4  
Since 1 July snowfall 0.7 7.5  
Since 1 September snowfall 0.7 7.5  
Snow Depth 0.00 in    
Sea Level Pressure  
Sea Level Pressure 30.06 in    
Wind  
Wind Speed 3 mph (WSW)    
Max Wind Speed 14 mph    
Max Gust Speed 19 mph    
Visibility 10 miles    
Events Rain    
T = Trace of Precipitation, MM = Missing Value Source: NWS Daily Summary

Daily Weather History Graph

Daily Weather History Graph

Search for Another Location

Airport or City:

Trip Planner

Search our weather history database for the weather conditions in past years. The results will help you decide how hot, cold, wet, or windy it might be!

Date:

Astronomy

Nov. 30, 2014 Rise Set
Actual Time 9:26 AM AKST 4:30 PM AKST
Civil Twilight 8:38 AM AKST 5:18 PM AKST
Nautical Twilight 7:47 AM AKST 6:09 PM AKST
Astronomical Twilight 7:00 AM AKST 6:56 PM AKST
Moon 2:18 PM AKST (11/30) 1:49 AM AKST (11/30)
Length of Visible Light 8h 40m
Length of Day
7h 03m
Waxing Gibbous, 66% of the Moon is Illuminated
Nov 30
Waxing Gibbous
Dec 6
Full
Dec 14
Last Quarter
Dec 21
New
Dec 28
First Quarter

Hourly Weather History & Observations

Time (AKST) Temp. Windchill Dew Point Humidity Pressure Visibility Wind Dir Wind Speed Gust Speed Precip Events Conditions
12:53 AM 33.1 °F 27.7 °F 25.0 °F 72% 30.19 in 10.0 mi West 5.8 mph - N/A   Scattered Clouds
1:53 AM 30.9 °F 24.3 °F 25.0 °F 79% 30.18 in 10.0 mi NNW 6.9 mph - N/A   Partly Cloudy
2:53 AM 33.1 °F 30.0 °F 24.1 °F 70% 30.17 in 10.0 mi WSW 3.5 mph - N/A   Scattered Clouds
3:53 AM 32.0 °F - 25.0 °F 75% 30.17 in 10.0 mi Calm Calm - N/A   Mostly Cloudy
4:53 AM 28.9 °F 22.8 °F 25.0 °F 85% 30.16 in 10.0 mi West 5.8 mph - N/A   Scattered Clouds
5:53 AM 30.0 °F 25.2 °F 25.0 °F 82% 30.16 in 10.0 mi WNW 4.6 mph - N/A   Mostly Cloudy
6:53 AM 28.9 °F 23.9 °F 26.1 °F 89% 30.15 in 10.0 mi West 4.6 mph - N/A   Mostly Cloudy
7:53 AM 30.9 °F - 26.1 °F 82% 30.14 in 10.0 mi Calm Calm - N/A   Mostly Cloudy
8:53 AM 28.9 °F 23.9 °F 27.0 °F 92% 30.13 in 10.0 mi West 4.6 mph - N/A   Mostly Cloudy
9:53 AM 30.0 °F 24.1 °F 27.0 °F 88% 30.12 in 10.0 mi West 5.8 mph - N/A   Mostly Cloudy
10:53 AM 32.0 °F 27.5 °F 28.0 °F 85% 30.13 in 10.0 mi WSW 4.6 mph - N/A   Overcast
11:53 AM 33.1 °F 30.0 °F 28.0 °F 82% 30.11 in 10.0 mi West 3.5 mph - N/A   Mostly Cloudy
12:53 PM 34.0 °F 31.0 °F 28.0 °F 79% 30.08 in 10.0 mi West 3.5 mph - N/A   Mostly Cloudy
1:53 PM 35.1 °F - 28.0 °F 76% 30.06 in 10.0 mi Calm Calm - N/A   Overcast
2:53 PM 34.0 °F - 30.0 °F 85% 30.04 in 10.0 mi Calm Calm - N/A   Overcast
3:53 PM 34.0 °F - 30.0 °F 85% 30.03 in 10.0 mi Calm Calm - N/A   Overcast
4:53 PM 33.1 °F - 30.0 °F 89% 30.01 in 10.0 mi Calm Calm - N/A   Overcast
5:53 PM 37.0 °F - 30.0 °F 76% 29.99 in 10.0 mi Calm Calm - 0.00 in Rain Light Rain
6:53 PM 34.0 °F - 30.9 °F 89% 29.96 in 10.0 mi Calm Calm - 0.00 in   Overcast
7:53 PM 37.0 °F 31.6 °F 32.0 °F 82% 29.95 in 10.0 mi SSW 6.9 mph - N/A   Overcast
8:53 PM 36.0 °F 33.3 °F 33.1 °F 89% 29.92 in 10.0 mi SSE 3.5 mph - N/A   Overcast
9:53 PM 37.0 °F - 33.1 °F 86% 29.89 in 10.0 mi Calm Calm - 0.00 in Rain Light Rain
10:53 PM 37.0 °F - 34.0 °F 89% 29.86 in 10.0 mi Calm Calm - 0.00 in   Overcast
11:53 PM 42.1 °F 34.9 °F 33.1 °F 70% 29.85 in 10.0 mi South 13.8 mph 19.6 mph N/A   Overcast